,,PA_Meas_PMT16A,,PR_Meas_QMR101_102,,RH_Meas_QMH101,,SR_Meas_QMS101,,TA_Meas_QMH101,,GenWind,,GenWind,
time,status,PA,status,PR,status,RH,status,SR,status,TA,status,DirAvg,status,SpdAvg,
2015-04-30, 08:07:04,VALID,919.439,VALID,0,VALID,98.6241,VALID,97.7714,VALID,20.5024,INVALID,360,INVALID,0,
2015-04-30, 08:08:04,VALID,919.461,VALID,0,VALID,98.6318,VALID,104.325,VALID,20.5609,VALID,47,VALID,0,
2015-04-30, 08:09:04,VALID,919.506,VALID,0,VALID,98.6394,VALID,95.8375,VALID,20.5609,VALID,56,VALID,0,
2015-04-30, 08:10:04,VALID,919.48,VALID,0,VALID,98.6546,VALID,90.8952,VALID,20.5024,VALID,71,VALID,0,
2015-04-30, 08:11:04,VALID,919.504,VALID,0,VALID,98.6546,VALID,100.457,VALID,20.5219,VALID,357,VALID,0,
2015-04-30, 08:12:04,VALID,919.527,VALID,0,VALID,98.6622,VALID,101.317,VALID,20.5609,VALID,339,VALID,0.590234,
2015-04-30, 08:13:04,VALID,919.561,VALID,0,VALID,98.6851,VALID,98.0938,VALID,20.5204,VALID,226,VALID,0,
2015-04-30, 08:14:04,VALID,919.579,VALID,0,VALID,98.6622,VALID,91.325,VALID,20.5804,VALID,58,VALID,0,
2015-04-30, 08:15:04,VALID,919.585,VALID,0,VALID,98.6318,VALID,88.1017,VALID,20.6194,VALID,155,VALID,0,
2015-04-30, 08:16:04,VALID,919.609,VALID,0,VALID,98.6318,VALID,95.4077,VALID,20.6179,VALID,15,VALID,0,
2015-04-30, 08:17:04,VALID,919.587,VALID,0,VALID,98.6394,VALID,98.7384,VALID,20.639,VALID,276,VALID,0,
2015-04-30, 08:18:04,VALID,919.625,VALID,0,VALID,98.6775,VALID,84.7711,VALID,20.6194,VALID,359,VALID,0,
2015-04-30, 08:19:04,VALID,919.617,VALID,0,VALID,98.6775,VALID,74.5642,VALID,20.5609,VALID,224,VALID,0,
2015-04-30, 08:20:04,VALID,919.633,VALID,0,VALID,98.6546,VALID,72.5228,VALID,20.5999,VALID,224,VALID,0,
2015-04-30, 08:21:04,VALID,919.631,VALID,0,VALID,98.6546,VALID,74.2418,VALID,20.5999,VALID,232,VALID,0.611719,
2015-04-30, 08:22:04,VALID,919.622,VALID,0,VALID,98.6775,VALID,65.754,VALID,20.5204,VALID,360,VALID,0.0105469,
2015-04-30, 08:23:04,VALID,919.668,VALID,0,VALID,98.6546,VALID,64.4647,VALID,20.5594,VALID,34,VALID,0,
2015-04-30, 08:24:04,VALID,919.665,VALID,0,VALID,98.647,VALID,87.4571,VALID,20.5789,VALID,6,VALID,0,
2015-04-30, 08:25:04,VALID,919.675,VALID,0,VALID,98.647,VALID,79.7213,VALID,20.5804,VALID,246,VALID,0,
2015-04-30, 08:26:04,VALID,919.671,VALID,0,VALID,98.6165,VALID,72.093,VALID,20.6194,VALID,174,VALID,0,
2015-04-30, 08:27:04,VALID,919.654,VALID,0,VALID,98.6241,VALID,74.6716,VALID,20.639,VALID,66,VALID,0.162109,
2015-04-30, 08:28:04,VALID,919.689,VALID,0,VALID,98.6165,VALID,85.4157,VALID,20.639,VALID,30,VALID,0,
2015-04-30, 08:29:04,VALID,919.723,VALID,0,VALID,98.586,VALID,88.1017,VALID,20.6569,VALID,345,VALID,0,
2015-04-30, 08:30:04,VALID,919.736,VALID,0,VALID,98.6394,VALID,88.3166,VALID,20.5984,VALID,281,VALID,0.0488281,
2015-04-30, 08:31:04,VALID,919.74,VALID,0,VALID,98.6546,VALID,83.8041,VALID,20.5594,VALID,270,VALID,0,
2015-04-30, 08:32:04,VALID,919.745,VALID,0,VALID,98.6927,VALID,85.0934,VALID,20.5219,VALID,298,VALID,1.18633,
2015-04-30, 08:33:04,VALID,919.761,VALID,0,VALID,98.6775,VALID,86.8125,VALID,20.4618,VALID,352,VALID,0.350781,
2015-04-30, 08:34:04,VALID,919.743,VALID,0.2,VALID,98.6318,VALID,88.3166,VALID,20.5204,VALID,9,VALID,0.905859,
2015-04-30, 08:35:04,VALID,919.825,VALID,0,VALID,98.6241,VALID,95.3003,VALID,20.5204,VALID,182,VALID,0.806641,
2015-04-30, 08:36:04,VALID,919.803,VALID,0,VALID,98.6546,VALID,88.4241,VALID,20.4618,VALID,46,VALID,1.54102,
2015-04-30, 08:37:04,VALID,919.822,VALID,0,VALID,98.6241,VALID,82.9446,VALID,20.5009,VALID,22,VALID,1.50508,
2015-04-30, 08:38:04,VALID,919.831,VALID,0,VALID,98.6013,VALID,78.2172,VALID,20.5789,VALID,352,VALID,0.519922,
2015-04-30, 08:39:04,VALID,919.854,VALID,0,VALID,98.6089,VALID,77.8948,VALID,20.5594,VALID,316,VALID,0.271484,
2015-04-30, 08:40:04,VALID,919.843,VALID,0,VALID,98.6394,VALID,82.7297,VALID,20.5204,VALID,53,VALID,1.28359,
2015-04-30, 08:41:04,VALID,919.874,VALID,0,VALID,98.6241,VALID,87.9943,VALID,20.5399,VALID,79,VALID,0.916016,
2015-04-30, 08:42:04,VALID,919.882,VALID,0,VALID,98.6013,VALID,81.7627,VALID,20.5789,VALID,41,VALID,1.15586,
2015-04-30, 08:43:04,VALID,919.901,VALID,0,VALID,98.586,VALID,92.9366,VALID,20.6374,VALID,38,VALID,0.849219,
2015-04-30, 08:44:04,VALID,919.882,VALID,0,VALID,98.6546,VALID,91.5399,VALID,20.5399,VALID,34,VALID,1.59453,
2015-04-30, 08:45:04,VALID,919.893,VALID,0,VALID,98.6394,VALID,84.3413,VALID,20.5009,VALID,4,VALID,0.505078,
2015-04-30, 08:46:04,VALID,919.919,VALID,0,VALID,98.647,VALID,80.6883,VALID,20.5414,VALID,11,VALID,0.865625,
2015-04-30, 08:47:04,VALID,919.934,VALID,0,VALID,98.6394,VALID,93.3664,VALID,20.5009,VALID,38,VALID,0.525391,
2015-04-30, 08:48:04,VALID,919.929,VALID,0,VALID,98.5936,VALID,96.3747,VALID,20.5414,VALID,335,VALID,0.667969,
2015-04-30, 08:49:04,VALID,919.944,VALID,0,VALID,98.586,VALID,83.4818,VALID,20.5609,VALID,357,VALID,1.08438,
2015-04-30, 08:50:04,VALID,919.935,VALID,0,VALID,98.5936,VALID,85.738,VALID,20.5399,VALID,25,VALID,1.19453,
2015-04-30, 08:51:04,VALID,919.945,VALID,0,VALID,98.5936,VALID,84.4487,VALID,20.5789,VALID,17,VALID,1.37266,
2015-04-30, 08:52:04,VALID,919.926,VALID,0,VALID,98.5631,VALID,94.4408,VALID,20.621,VALID,359,VALID,0.200781,
2015-04-30, 08:53:04,VALID,919.915,VALID,0,VALID,98.5784,VALID,106.259,VALID,20.5999,VALID,31,VALID,1.24883,
2015-04-30, 08:54:04,VALID,919.933,VALID,0,VALID,98.5479,VALID,102.821,VALID,20.678,VALID,38,VALID,1.55,
2015-04-30, 08:55:04,VALID,919.914,VALID,0,VALID,98.5631,VALID,91.4324,VALID,20.639,VALID,20,VALID,0.646875,
2015-04-30, 08:56:04,VALID,919.956,VALID,0,VALID,98.5555,VALID,93.1515,VALID,20.6795,VALID,359,VALID,0.476172,
2015-04-30, 08:57:04,VALID,919.959,VALID,0,VALID,98.5708,VALID,90.1431,VALID,20.678,VALID,316,VALID,0.61875,
2015-04-30, 08:58:04,VALID,919.939,VALID,0,VALID,98.6165,VALID,80.5809,VALID,20.6194,VALID,240,VALID,0.408203,
2015-04-30, 08:59:04,VALID,919.963,VALID,0,VALID,98.6165,VALID,84.986,VALID,20.6585,VALID,212,VALID,0.262891,
2015-04-30, 09:00:04,VALID,919.978,VALID,0,VALID,98.5708,VALID,83.8041,VALID,20.678,VALID,106,VALID,0.744531,
2015-04-30, 09:01:04,VALID,919.981,VALID,0,VALID,98.6013,VALID,87.2422,VALID,20.6795,VALID,3,VALID,0.539453,
2015-04-30, 09:02:04,VALID,919.96,VALID,0,VALID,98.6089,VALID,84.5562,VALID,20.6585,VALID,304,VALID,0.803906,
2015-04-30, 09:03:04,VALID,919.971,VALID,0,VALID,98.6089,VALID,90.358,VALID,20.639,VALID,280,VALID,0.249609,
2015-04-30, 09:04:04,VALID,919.957,VALID,0,VALID,98.5555,VALID,95.5152,VALID,20.7185,VALID,19,VALID,1.82852,
2015-04-30, 09:05:04,VALID,920,VALID,0,VALID,98.5708,VALID,100.135,VALID,20.6975,VALID,340,VALID,1.0543,
2015-04-30, 09:06:04,VALID,920.025,VALID,0,VALID,98.5784,VALID,105.937,VALID,20.717,VALID,345,VALID,0.104297,
2015-04-30, 09:07:04,VALID,920.052,VALID,0,VALID,98.5708,VALID,103.896,VALID,20.6959,VALID,222,VALID,0.851172,
2015-04-30, 09:08:04,VALID,920.048,VALID,0,VALID,98.5784,VALID,106.367,VALID,20.6959,VALID,55,VALID,1.04219,
2015-04-30, 09:09:04,VALID,920.048,VALID,0,VALID,98.5403,VALID,98.4161,VALID,20.8145,VALID,30,VALID,0,
2015-04-30, 09:10:04,VALID,920.035,VALID,0,VALID,98.525,VALID,113.458,VALID,20.8324,VALID,23,VALID,0,
2015-04-30, 09:11:04,VALID,920.069,VALID,0,VALID,98.525,VALID,116.251,VALID,20.8519,VALID,24,VALID,1.24219,
2015-04-30, 09:12:04,VALID,920.066,VALID,0,VALID,98.5327,VALID,131.723,VALID,20.8714,VALID,22,VALID,1.17539,
2015-04-30, 09:13:04,VALID,920.057,VALID,0,VALID,98.5708,VALID,120.979,VALID,20.891,VALID,21,VALID,2.07695,
2015-04-30, 09:14:04,VALID,920.094,VALID,0,VALID,98.586,VALID,116.359,VALID,20.8324,VALID,21,VALID,1.54844,
2015-04-30, 09:15:04,VALID,920.118,VALID,0,VALID,98.5936,VALID,124.524,VALID,20.834,VALID,28,VALID,1.52539,
2015-04-30, 09:16:04,VALID,920.113,VALID,0,VALID,98.5631,VALID,122.268,VALID,20.873,VALID,34,VALID,1.6457,
2015-04-30, 09:17:04,VALID,920.116,VALID,0,VALID,98.5708,VALID,103.358,VALID,20.8519,VALID,16,VALID,1.28359,
2015-04-30, 09:18:04,VALID,920.13,VALID,0,VALID,98.5631,VALID,102.714,VALID,20.8519,VALID,5,VALID,1.26641,
2015-04-30, 09:19:04,VALID,920.097,VALID,0,VALID,98.6165,VALID,101.962,VALID,20.8145,VALID,13,VALID,3.17188,
2015-04-30, 09:20:04,VALID,920.108,VALID,0,VALID,98.6089,VALID,117.541,VALID,20.7349,VALID,298,VALID,0.492188,
2015-04-30, 09:21:04,VALID,920.134,VALID,0,VALID,98.5784,VALID,176.311,VALID,20.7739,VALID,21,VALID,1.20586,
2015-04-30, 09:22:04,VALID,920.128,VALID,0,VALID,98.5174,VALID,195.113,VALID,20.8746,VALID,10,VALID,0.275781,
2015-04-30, 09:23:04,VALID,920.105,VALID,0,VALID,98.525,VALID,194.791,VALID,20.8535,VALID,24,VALID,0.904297,
2015-04-30, 09:24:04,VALID,920.116,VALID,0,VALID,98.4945,VALID,179.104,VALID,20.9331,VALID,42,VALID,0.733984,
2015-04-30, 09:25:04,VALID,920.132,VALID,0,VALID,98.525,VALID,159.12,VALID,20.9316,VALID,15,VALID,0.60625,
2015-04-30, 09:26:04,VALID,920.134,VALID,0,VALID,98.5022,VALID,169.972,VALID,21.0096,VALID,13,VALID,0.712109,
2015-04-30, 09:27:04,VALID,920.149,VALID,0,VALID,98.5022,VALID,173.732,VALID,21.0291,VALID,5,VALID,0.734375,
2015-04-30, 09:28:04,VALID,920.129,VALID,0,VALID,98.525,VALID,150.955,VALID,21.0665,VALID,26,VALID,1.48672,
2015-04-30, 09:29:04,VALID,920.124,VALID,0,VALID,98.464,VALID,139.459,VALID,21.2031,VALID,40,VALID,0.733594,
2015-04-30, 09:30:04,VALID,920.181,VALID,0,VALID,98.4793,VALID,154.178,VALID,21.2242,VALID,14,VALID,0.848828,
2015-04-30, 09:31:04,VALID,920.145,VALID,0,VALID,98.5327,VALID,301.05,VALID,21.125,VALID,2,VALID,1.60391,
2015-04-30, 09:32:04,VALID,920.136,VALID,0,VALID,98.5403,VALID,266.669,VALID,21.1055,VALID,11,VALID,2.85234,
2015-04-30, 09:33:04,VALID,920.141,VALID,0,VALID,98.525,VALID,288.372,VALID,21.125,VALID,10,VALID,1.34922,
2015-04-30, 09:34:04,VALID,920.146,VALID,0,VALID,98.4488,VALID,227.56,VALID,21.2031,VALID,11,VALID,1.87891,
2015-04-30, 09:35:04,VALID,920.135,VALID,0,VALID,98.4488,VALID,327.051,VALID,21.2616,VALID,1,VALID,1.25937,
2015-04-30, 09:36:04,VALID,920.139,VALID,0,VALID,98.4107,VALID,202.419,VALID,21.3396,VALID,325,VALID,0.426172,
2015-04-30, 09:37:04,VALID,920.179,VALID,0,VALID,98.4869,VALID,153.426,VALID,21.2405,VALID,33,VALID,0.764063,
2015-04-30, 09:38:04,VALID,920.191,VALID,0,VALID,98.4031,VALID,130.756,VALID,21.299,VALID,21,VALID,0.326562,
2015-04-30, 09:39:04,VALID,920.133,VALID,0,VALID,98.4031,VALID,140.533,VALID,21.3786,VALID,40,VALID,0,
2015-04-30, 09:40:04,VALID,920.165,VALID,0,VALID,98.3649,VALID,144.293,VALID,21.416,VALID,24,VALID,0,
2015-04-30, 09:41:04,VALID,920.145,VALID,0,VALID,98.3344,VALID,175.881,VALID,21.5152,VALID,22,VALID,0,
2015-04-30, 09:42:04,VALID,920.167,VALID,0,VALID,98.3497,VALID,259.148,VALID,21.5136,VALID,11,VALID,0.220313,
2015-04-30, 09:43:04,VALID,920.155,VALID,0,VALID,98.3878,VALID,206.932,VALID,21.4355,VALID,19,VALID,2.77344,
2015-04-30, 09:44:04,VALID,920.163,VALID,0,VALID,98.3344,VALID,202.419,VALID,21.4355,VALID,320,VALID,0.669922,
2015-04-30, 09:45:04,VALID,920.156,VALID,0,VALID,98.3192,VALID,273.115,VALID,21.3185,VALID,10,VALID,1.84766,
2015-04-30, 09:46:04,VALID,920.145,VALID,0,VALID,98.2048,VALID,534.842,VALID,21.299,VALID,21,VALID,1.36953,
2015-04-30, 09:47:04,VALID,920.146,VALID,0,VALID,98.1439,VALID,346.39,VALID,21.4372,VALID,9,VALID,0.437109,
2015-04-30, 09:48:04,VALID,920.109,VALID,0,VALID,98.1515,VALID,290.736,VALID,21.4177,VALID,353,VALID,1.68398,
2015-04-30, 09:49:04,VALID,920.028,VALID,0,VALID,98.0295,VALID,315.77,VALID,21.3591,VALID,6,VALID,1.22227,
2015-04-30, 09:50:04,VALID,920.015,VALID,0,VALID,97.999,VALID,364.763,VALID,21.4957,VALID,29,VALID,0.528125,
2015-04-30, 09:51:04,VALID,919.971,VALID,0,VALID,97.938,VALID,275.049,VALID,21.5542,VALID,20,VALID,1.69961,
2015-04-30, 09:52:04,VALID,919.946,VALID,0,VALID,97.9228,VALID,362.399,VALID,21.6323,VALID,358,VALID,0.100391,
2015-04-30, 09:53:04,VALID,919.935,VALID,0,VALID,97.8008,VALID,279.992,VALID,21.5932,VALID,359,VALID,0.773438,
2015-04-30, 09:54:04,VALID,919.877,VALID,0,VALID,97.6941,VALID,237.66,VALID,21.6908,VALID,32,VALID,0.8125,
2015-04-30, 09:55:04,VALID,919.839,VALID,0,VALID,97.6331,VALID,266.884,VALID,21.7867,VALID,11,VALID,0,
2015-04-30, 09:56:04,VALID,919.865,VALID,0,VALID,97.4882,VALID,358.746,VALID,21.8079,VALID,353,VALID,0.528516,
2015-04-30, 09:57:04,VALID,919.803,VALID,0,VALID,96.9775,VALID,283.752,VALID,21.7087,VALID,349,VALID,0,
2015-04-30, 09:58:04,VALID,919.8,VALID,0,VALID,96.6115,VALID,277.735,VALID,21.7477,VALID,36,VALID,0.0121094,
2015-04-30, 09:59:04,VALID,919.77,VALID,0,VALID,96.4438,VALID,254.206,VALID,21.7867,VALID,55,VALID,0,
2015-04-30, 10:00:04,VALID,919.747,VALID,0,VALID,96.5506,VALID,274.19,VALID,21.8842,VALID,53,VALID,0.885547,
2015-04-30, 10:01:04,VALID,919.741,VALID,0,VALID,96.4286,VALID,401.293,VALID,21.9444,VALID,360,VALID,0.815234,
2015-04-30, 10:02:04,VALID,919.713,VALID,0,VALID,95.712,VALID,230.461,VALID,21.8452,VALID,21,VALID,0.559375,
2015-04-30, 10:03:04,VALID,919.695,VALID,0,VALID,95.7196,VALID,203.494,VALID,21.9054,VALID,24,VALID,0,
2015-04-30, 10:04:04,VALID,919.665,VALID,0,VALID,96.0932,VALID,186.625,VALID,21.9623,VALID,356,VALID,0,
2015-04-30, 10:05:04,VALID,919.629,VALID,0,VALID,95.9254,VALID,189.526,VALID,21.9623,VALID,38,VALID,0,
2015-04-30, 10:06:04,VALID,919.619,VALID,0,VALID,95.7882,VALID,200.915,VALID,21.9428,VALID,23,VALID,0.270703,
2015-04-30, 10:07:04,VALID,919.584,VALID,0,VALID,95.712,VALID,219.287,VALID,21.9428,VALID,32,VALID,0.903125,
2015-04-30, 10:08:04,VALID,919.572,VALID,0,VALID,96.0245,VALID,399.574,VALID,21.9818,VALID,28,VALID,0.0113281,
2015-04-30, 10:09:04,VALID,919.547,VALID,0,VALID,95.9559,VALID,583.298,VALID,21.9996,VALID,18,VALID,0.866016,
2015-04-30, 10:10:04,VALID,919.536,VALID,0,VALID,95.7654,VALID,354.878,VALID,22.0598,VALID,344,VALID,0,
2015-04-30, 10:11:04,VALID,919.539,VALID,0,VALID,94.0501,VALID,460.923,VALID,22.0403,VALID,325,VALID,0.0269531,
2015-04-30, 10:12:04,VALID,919.575,VALID,0,VALID,92.251,VALID,494.874,VALID,22.0208,VALID,280,VALID,0.0136719,
2015-04-30, 10:13:04,VALID,919.522,VALID,0,VALID,93.4478,VALID,429.013,VALID,22.0013,VALID,291,VALID,0.389844,
2015-04-30, 10:14:04,VALID,919.477,VALID,0,VALID,93.7528,VALID,359.713,VALID,21.9411,VALID,90,VALID,0.714453,
2015-04-30, 10:15:04,VALID,919.467,VALID,0,VALID,94.3093,VALID,337.365,VALID,21.9428,VALID,33,VALID,0.996484,
2015-04-30, 10:16:04,VALID,919.484,VALID,0,VALID,94.881,VALID,413.541,VALID,21.9818,VALID,358,VALID,1.18594,
2015-04-30, 10:17:04,VALID,919.455,VALID,0,VALID,94.8582,VALID,784.428,VALID,21.9411,VALID,315,VALID,1.42969,
2015-04-30, 10:18:04,VALID,919.438,VALID,0,VALID,94.9496,VALID,738.121,VALID,22.0013,VALID,19,VALID,1.85469,
2015-04-30, 10:19:04,VALID,919.402,VALID,0,VALID,94.9573,VALID,297.934,VALID,22.0598,VALID,2,VALID,1.15156,
2015-04-30, 10:20:04,VALID,919.435,VALID,0,VALID,94.599,VALID,239.379,VALID,22.042,VALID,5,VALID,0.986328,
2015-04-30, 10:21:04,VALID,919.415,VALID,0,VALID,94.7438,VALID,222.511,VALID,22.0615,VALID,4,VALID,1.68203,
2015-04-30, 10:22:04,VALID,919.417,VALID,0,VALID,94.6828,VALID,224.552,VALID,22.0013,VALID,345,VALID,1.19375,
2015-04-30, 10:23:04,VALID,919.365,VALID,0,VALID,94.1111,VALID,234.544,VALID,21.9038,VALID,21,VALID,1.49102,
2015-04-30, 10:24:04,VALID,919.377,VALID,0,VALID,94.7057,VALID,235.296,VALID,21.9623,VALID,17,VALID,2.04414,
2015-04-30, 10:25:04,VALID,919.401,VALID,0,VALID,94.9268,VALID,248.511,VALID,21.9818,VALID,21,VALID,1.05352,
2015-04-30, 10:26:04,VALID,919.416,VALID,0,VALID,95.1479,VALID,254.85,VALID,22.0208,VALID,18,VALID,0.23125,
2015-04-30, 10:27:04,VALID,919.409,VALID,0,VALID,95.8187,VALID,206.717,VALID,22.1964,VALID,19,VALID,0,
2015-04-30, 10:28:04,VALID,919.382,VALID,0,VALID,95.9178,VALID,192.857,VALID,22.294,VALID,18,VALID,0.440234,
2015-04-30, 10:29:04,VALID,919.424,VALID,0,VALID,95.529,VALID,251.09,VALID,22.333,VALID,21,VALID,0.266797,
2015-04-30, 10:30:04,VALID,919.406,VALID,0,VALID,95.0869,VALID,223.478,VALID,22.3916,VALID,24,VALID,0,
2015-04-30, 10:31:04,VALID,919.386,VALID,0,VALID,94.9496,VALID,195.328,VALID,22.4306,VALID,10,VALID,0.0195313,
2015-04-30, 10:32:04,VALID,919.385,VALID,0,VALID,94.7896,VALID,163.203,VALID,22.4501,VALID,287,VALID,0,
2015-04-30, 10:33:04,VALID,919.385,VALID,0,VALID,93.9967,VALID,151.062,VALID,22.4306,VALID,323,VALID,0.00273437,
2015-04-30, 10:34:04,VALID,919.361,VALID,0,VALID,94.2635,VALID,168.36,VALID,22.4501,VALID,33,VALID,0.171875,
2015-04-30, 10:35:04,VALID,919.397,VALID,0,VALID,94.3779,VALID,172.121,VALID,22.4696,VALID,329,VALID,0,
2015-04-30, 10:36:04,VALID,919.379,VALID,0,VALID,94.3321,VALID,158.046,VALID,22.4891,VALID,2,VALID,0,
2015-04-30, 10:37:04,VALID,919.4,VALID,0,VALID,93.9281,VALID,152.244,VALID,22.4501,VALID,2,VALID,0,
2015-04-30, 10:38:04,VALID,919.408,VALID,0,VALID,93.9357,VALID,155.897,VALID,22.4696,VALID,2,VALID,0,
2015-04-30, 10:39:04,VALID,919.396,VALID,0,VALID,93.2954,VALID,162.451,VALID,22.4696,VALID,38,VALID,0,
2015-04-30, 10:40:04,VALID,919.379,VALID,0,VALID,93.0667,VALID,164.278,VALID,22.3933,VALID,25,VALID,0.0125,
2015-04-30, 10:41:04,VALID,919.393,VALID,0,VALID,93.242,VALID,176.848,VALID,22.3135,VALID,47,VALID,0.743359,
2015-04-30, 10:42:04,VALID,919.432,VALID,0,VALID,93.9205,VALID,194.146,VALID,22.3135,VALID,21,VALID,0.596094,
2015-04-30, 10:43:04,VALID,919.389,VALID,0,VALID,94.3017,VALID,202.849,VALID,22.3525,VALID,5,VALID,0,
2015-04-30, 10:44:04,VALID,919.396,VALID,0,VALID,94.1187,VALID,218.643,VALID,22.3916,VALID,5,VALID,0,
2015-04-30, 10:45:04,VALID,919.401,VALID,0,VALID,94.0043,VALID,233.685,VALID,22.4111,VALID,14,VALID,0,
2015-04-30, 10:46:04,VALID,919.402,VALID,0,VALID,92.5788,VALID,223.8,VALID,22.3916,VALID,1,VALID,0.215625,
2015-04-30, 10:47:04,VALID,919.423,VALID,0,VALID,92.0146,VALID,225.734,VALID,22.333,VALID,356,VALID,0.2,
2015-04-30, 10:48:04,VALID,919.394,VALID,0,VALID,93.3259,VALID,255.71,VALID,22.3135,VALID,14,VALID,0.257422,
2015-04-30, 10:49:04,VALID,919.428,VALID,0,VALID,93.7451,VALID,273.438,VALID,22.294,VALID,21,VALID,0.00820312,
2015-04-30, 10:50:04,VALID,919.473,VALID,0,VALID,94.7514,VALID,258.611,VALID,22.4111,VALID,32,VALID,0,
2015-04-30, 10:51:04,VALID,919.459,VALID,0,VALID,94.6752,VALID,242.28,VALID,22.4696,VALID,10,VALID,0,
2015-04-30, 10:52:04,VALID,919.452,VALID,0,VALID,93.829,VALID,256.247,VALID,22.5281,VALID,129,VALID,0,
2015-04-30, 10:53:04,VALID,919.449,VALID,0,VALID,92.7998,VALID,240.561,VALID,22.5477,VALID,132,VALID,0,
2015-04-30, 10:54:04,VALID,919.417,VALID,0,VALID,93.2268,VALID,251.412,VALID,22.6647,VALID,37,VALID,0,
2015-04-30, 10:55:04,VALID,919.413,VALID,0,VALID,92.6016,VALID,288.157,VALID,22.7623,VALID,30,VALID,0,
2015-04-30, 10:56:04,VALID,919.394,VALID,0,VALID,92.1137,VALID,353.159,VALID,22.8014,VALID,9,VALID,1.01133,
2015-04-30, 10:57:04,VALID,919.417,VALID,0,VALID,91.0388,VALID,434.17,VALID,22.8404,VALID,49,VALID,0.00820312,
2015-04-30, 10:58:04,VALID,919.427,VALID,0,VALID,91.7249,VALID,464.146,VALID,22.977,VALID,8,VALID,0,
2015-04-30, 10:59:04,VALID,919.444,VALID,0,VALID,89.9639,VALID,464.898,VALID,23.0356,VALID,43,VALID,0.341406,
2015-04-30, 11:00:04,VALID,919.425,VALID,0,VALID,88.5536,VALID,431.591,VALID,23.0941,VALID,353,VALID,0.06875,
2015-04-30, 11:01:04,VALID,919.441,VALID,0,VALID,85.2984,VALID,463.179,VALID,23.0356,VALID,336,VALID,0.611328,
2015-04-30, 11:02:04,VALID,919.458,VALID,0,VALID,87.5092,VALID,450.393,VALID,23.0551,VALID,7,VALID,1.19453,
2015-04-30, 11:03:04,VALID,919.483,VALID,0,VALID,87.3339,VALID,474.675,VALID,23.0746,VALID,32,VALID,0,
2015-04-30, 11:04:04,VALID,919.446,VALID,0,VALID,85.0773,VALID,452.972,VALID,23.1136,VALID,350,VALID,2.00391,
2015-04-30, 11:05:04,VALID,919.425,VALID,0,VALID,86.1751,VALID,451.038,VALID,23.0728,VALID,19,VALID,1.4168,
2015-04-30, 11:06:04,VALID,919.409,VALID,0,VALID,86.846,VALID,464.468,VALID,23.1136,VALID,339,VALID,0.0105469,
2015-04-30, 11:07:04,VALID,919.409,VALID,0,VALID,88.0428,VALID,494.874,VALID,23.1899,VALID,7,VALID,1.85039,
2015-04-30, 11:08:04,VALID,919.415,VALID,0,VALID,86.1141,VALID,439.005,VALID,23.2094,VALID,13,VALID,0.185937,
2015-04-30, 11:09:04,VALID,919.373,VALID,0,VALID,86.0607,VALID,497.667,VALID,23.229,VALID,354,VALID,0.982813,
2015-04-30, 11:10:04,VALID,919.398,VALID,0,VALID,88.363,VALID,878.654,VALID,23.3461,VALID,27,VALID,1.10352,
2015-04-30, 11:11:04,VALID,919.41,VALID,0,VALID,85.7939,VALID,687.623,VALID,23.5217,VALID,298,VALID,0,
2015-04-30, 11:12:04,VALID,919.432,VALID,0,VALID,86.7164,VALID,817.735,VALID,23.756,VALID,7,VALID,0,
2015-04-30, 11:13:04,VALID,919.42,VALID,0,VALID,82.6836,VALID,750.691,VALID,23.8145,VALID,288,VALID,0,
2015-04-30, 11:14:04,VALID,919.428,VALID,0,VALID,84.1854,VALID,539.892,VALID,23.8926,VALID,22,VALID,0,
2015-04-30, 11:15:04,VALID,919.404,VALID,0,VALID,82.6836,VALID,556.653,VALID,24.0506,VALID,15,VALID,0,
2015-04-30, 11:16:04,VALID,919.412,VALID,0,VALID,82.8437,VALID,487.568,VALID,24.2263,VALID,24,VALID,0.49375,
2015-04-30, 11:17:04,VALID,919.435,VALID,0,VALID,81.7688,VALID,774.114,VALID,24.2849,VALID,32,VALID,0.697656,
2015-04-30, 11:18:04,VALID,919.424,VALID,0,VALID,81.601,VALID,697.401,VALID,24.283,VALID,30,VALID,0,
2015-04-30, 11:19:04,VALID,919.405,VALID,0,VALID,82.0432,VALID,686.549,VALID,24.4411,VALID,27,VALID,0.0429688,
2015-04-30, 11:20:04,VALID,919.385,VALID,0,VALID,80.3661,VALID,576.637,VALID,24.4002,VALID,333,VALID,1.2832,
2015-04-30, 11:21:04,VALID,919.396,VALID,0,VALID,80.5643,VALID,446.525,VALID,24.3806,VALID,319,VALID,0.323047,
2015-04-30, 11:22:04,VALID,919.379,VALID,0,VALID,82.4396,VALID,440.831,VALID,24.3221,VALID,246,VALID,0.0121094,
2015-04-30, 11:23:04,VALID,919.364,VALID,0,VALID,83.5526,VALID,491.866,VALID,24.4783,VALID,246,VALID,0,
2015-04-30, 11:24:04,VALID,919.381,VALID,0,VALID,81.4943,VALID,498.312,VALID,24.654,VALID,246,VALID,0,
2015-04-30, 11:25:04,VALID,919.365,VALID,0,VALID,79.8324,VALID,545.909,VALID,24.7107,VALID,257,VALID,0.842969,
2015-04-30, 11:26:04,VALID,919.345,VALID,0,VALID,80.2669,VALID,479.402,VALID,24.5368,VALID,253,VALID,0.337891,
2015-04-30, 11:27:04,VALID,919.375,VALID,0,VALID,81.7535,VALID,450.071,VALID,24.4959,VALID,14,VALID,0,
2015-04-30, 11:28:04,VALID,919.37,VALID,0,VALID,82.2109,VALID,425.252,VALID,24.6149,VALID,18,VALID,0,
2015-04-30, 11:29:04,VALID,919.35,VALID,0,VALID,79.4817,VALID,416.549,VALID,24.5759,VALID,253,VALID,0.0417969,
2015-04-30, 11:30:04,VALID,919.366,VALID,0,VALID,79.901,VALID,726.732,VALID,24.4978,VALID,290,VALID,0.343359,
2015-04-30, 11:31:04,VALID,919.331,VALID,0,VALID,81.7154,VALID,656.143,VALID,24.3788,VALID,334,VALID,0.440625,
2015-04-30, 11:32:04,VALID,919.332,VALID,0,VALID,80.8616,VALID,632.399,VALID,24.3983,VALID,291,VALID,0,
2015-04-30, 11:33:04,VALID,919.329,VALID,0,VALID,81.4791,VALID,1068.07,VALID,24.4587,VALID,294,VALID,0,
2015-04-30, 11:34:04,VALID,919.322,VALID,0,VALID,81.4028,VALID,647.655,VALID,24.5545,VALID,265,VALID,0,
2015-04-30, 11:35:04,VALID,919.314,VALID,0,VALID,81.5553,VALID,493.585,VALID,24.6912,VALID,258,VALID,0.0527344,
2015-04-30, 11:36:04,VALID,919.283,VALID,0,VALID,79.5808,VALID,439.434,VALID,24.7693,VALID,249,VALID,0.824609,
2015-04-30, 11:37:04,VALID,919.329,VALID,0,VALID,78.6279,VALID,412.896,VALID,24.574,VALID,246,VALID,1.52813,
2015-04-30, 11:38:04,VALID,919.309,VALID,0,VALID,79.4741,VALID,405.805,VALID,24.4178,VALID,251,VALID,1.36523,
2015-04-30, 11:39:04,VALID,919.298,VALID,0,VALID,80.5261,VALID,425.36,VALID,24.2812,VALID,249,VALID,0.0382813,
2015-04-30, 11:40:04,VALID,919.28,VALID,0,VALID,82.3176,VALID,360.143,VALID,24.3769,VALID,321,VALID,0,
2015-04-30, 11:41:04,VALID,919.29,VALID,0,VALID,81.3723,VALID,351.225,VALID,24.4959,VALID,305,VALID,0,
2015-04-30, 11:42:04,VALID,919.255,VALID,0,VALID,82.3481,VALID,338.332,VALID,24.4374,VALID,232,VALID,1.06406,
2015-04-30, 11:43:04,VALID,919.273,VALID,0,VALID,81.4333,VALID,392.805,VALID,24.3788,VALID,249,VALID,0.764844,
2015-04-30, 11:44:04,VALID,919.264,VALID,0,VALID,83.9109,VALID,479.295,VALID,24.3593,VALID,257,VALID,0,
2015-04-30, 11:45:04,VALID,919.273,VALID,0,VALID,84.1778,VALID,427.508,VALID,24.3965,VALID,258,VALID,0,